Hourly Weather Almaguer

Today, 5 March, Friday

Time Temperature Precipitation Wind Pressure Humidity
00:00 +14°C° 0.5 mm 1 mps 592 mmHg 92%
01:00 +14°C° 0 mm 1 mps 592 mmHg 91%
02:00 +14°C° 0.6 mm 1 mps 592 mmHg 92%
03:00 +13°C° 0.6 mm 0 mps 591 mmHg 92%
04:00 +13°C° 0.6 mm 0 mps 591 mmHg 92%
05:00 +13°C° 1.3 mm 0 mps 591 mmHg 93%
06:00 +13°C° 1.3 mm 0 mps 592 mmHg 94%
07:00 +13°C° 1.3 mm 0 mps 592 mmHg 94%
08:00 +14°C° 0.8 mm 0 mps 593 mmHg 94%
09:00 +14°C° 0.8 mm 0 mps 593 mmHg 93%
10:00 +15°C° 0.8 mm 0 mps 594 mmHg 92%
11:00 +16°C° 0.6 mm 0 mps 594 mmHg 89%
12:00 +19°C° 0.6 mm 1 mps 594 mmHg 87%
13:00 +21°C° 0.6 mm 1 mps 593 mmHg 84%
14:00 +20°C° 1.5 mm 1 mps 593 mmHg 85%
15:00 +20°C° 1.5 mm 1 mps 592 mmHg 86%
16:00 +17°C° 1.5 mm 0 mps 592 mmHg 87%
17:00 +16°C° 3.2 mm 0 mps 591 mmHg 90%
18:00 +15°C° 3.2 mm 0 mps 591 mmHg 93%
19:00 +14°C° 3.2 mm 0 mps 591 mmHg 96%
20:00 +14°C° 1.5 mm 0 mps 592 mmHg 95%
21:00 +14°C° 1.5 mm 0 mps 592 mmHg 95%
22:00 +13°C° 1.5 mm 0 mps 593 mmHg 95%
23:00 +13°C° 1.5 mm 0 mps 592 mmHg 96%

Tomorrow, 6 March, Saturday

Time Temperature Precipitation Wind Pressure Humidity
00:00 +13°C° 1.5 mm 0 mps 592 mmHg 96%
01:00 +13°C° 1.5 mm 0 mps 592 mmHg 97%
02:00 +13°C° 0.2 mm 0 mps 591 mmHg 96%
03:00 +13°C° 0.2 mm 1 mps 591 mmHg 96%
04:00 +13°C° 0.2 mm 1 mps 591 mmHg 96%
05:00 +13°C° 0 mm 1 mps 591 mmHg 95%
06:00 +13°C° 0 mm 1 mps 591 mmHg 94%
07:00 +13°C° 0 mm 1 mps 592 mmHg 93%
08:00 +15°C° 0.1 mm 1 mps 593 mmHg 89%
09:00 +18°C° 0.1 mm 1 mps 594 mmHg 84%
10:00 +20°C° 0.1 mm 1 mps 595 mmHg 79%
11:00 +21°C° 1 mm 1 mps 595 mmHg 78%
12:00 +22°C° 1 mm 1 mps 594 mmHg 78%
13:00 +22°C° 1 mm 1 mps 594 mmHg 77%
14:00 +22°C° 1.4 mm 1 mps 593 mmHg 79%
15:00 +21°C° 1.4 mm 1 mps 593 mmHg 81%
16:00 +21°C° 1.4 mm 1 mps 592 mmHg 82%
17:00 +20°C° 1.4 mm 1 mps 592 mmHg 86%
18:00 +18°C° 1.4 mm 1 mps 592 mmHg 90%
19:00 +16°C° 1.4 mm 1 mps 592 mmHg 94%
20:00 +15°C° 0.7 mm 1 mps 592 mmHg 94%
21:00 +15°C° 0.7 mm 1 mps 592 mmHg 94%
22:00 +15°C° 0.7 mm 1 mps 593 mmHg 94%
23:00 +14°C° 0.3 mm 1 mps 592 mmHg 94%

Day after tomorrow, 7 March, Sunday

Time Temperature Precipitation Wind Pressure Humidity
00:00 +14°C° 0.3 mm 1 mps 592 mmHg 94%
01:00 +14°C° 0.3 mm 1 mps 592 mmHg 94%
02:00 +13°C° 0.1 mm 1 mps 591 mmHg 94%
03:00 +13°C° 0.1 mm 1 mps 591 mmHg 93%
04:00 +13°C° 0.1 mm 1 mps 591 mmHg 93%
05:00 +14°C° 0.1 mm 1 mps 592 mmHg 93%
06:00 +13°C° 0.1 mm 0 mps 592 mmHg 92%
07:00 +13°C° 0.1 mm 0 mps 593 mmHg 92%
08:00 +15°C° 0.2 mm 0 mps 594 mmHg 89%
09:00 +18°C° 0.2 mm 1 mps 594 mmHg 87%
10:00 +19°C° 0.2 mm 1 mps 595 mmHg 84%
11:00 +19°C° 1 mm 1 mps 595 mmHg 85%
12:00 +19°C° 1 mm 1 mps 594 mmHg 86%
13:00 +17°C° 1 mm 0 mps 594 mmHg 87%
14:00 +19°C° 0.8 mm 1 mps 593 mmHg 87%
15:00 +19°C° 0.8 mm 1 mps 593 mmHg 87%
16:00 +19°C° 0.8 mm 1 mps 592 mmHg 87%
17:00 +18°C° 0.5 mm 1 mps 592 mmHg 90%
18:00 +16°C° 0.5 mm 1 mps 592 mmHg 93%
19:00 +14°C° 0.5 mm 0 mps 592 mmHg 95%
20:00 +15°C° 0.2 mm 1 mps 593 mmHg 95%
21:00 +14°C° 0.2 mm 1 mps 593 mmHg 95%
22:00 +14°C° 0.2 mm 1 mps 593 mmHg 94%
23:00 +14°C° 0.1 mm 1 mps 593 mmHg 94%

8 March, Monday

Time Temperature Precipitation Wind Pressure Humidity
00:00 +14°C° 0.1 mm 1 mps 593 mmHg 94%
01:00 +13°C° 0.1 mm 0 mps 592 mmHg 94%
02:00 +14°C° 0 mm 1 mps 592 mmHg 94%
03:00 +13°C° 0 mm 1 mps 592 mmHg 94%
04:00 +13°C° 0 mm 1 mps 591 mmHg 94%
05:00 +14°C° 0.3 mm 1 mps 592 mmHg 94%
06:00 +13°C° 0.3 mm 0 mps 592 mmHg 94%
07:00 +13°C° 0.3 mm 0 mps 593 mmHg 94%
08:00 +14°C° 0.1 mm 0 mps 594 mmHg 91%
09:00 +18°C° 0.1 mm 1 mps 594 mmHg 89%
10:00 +19°C° 0.1 mm 1 mps 595 mmHg 86%
11:00 +18°C° 1.5 mm 1 mps 595 mmHg 89%
12:00 +16°C° 1.5 mm 0 mps 594 mmHg 93%
13:00 +15°C° 1.5 mm 0 mps 593 mmHg 96%
14:00 +15°C° 0.5 mm 0 mps 593 mmHg 95%
15:00 +15°C° 0.5 mm 0 mps 592 mmHg 95%
16:00 +15°C° 0.5 mm 0 mps 592 mmHg 95%
17:00 +15°C° 0.2 mm 0 mps 592 mmHg 95%
18:00 +14°C° 0.2 mm 0 mps 592 mmHg 96%
19:00 +14°C° 0.2 mm 0 mps 592 mmHg 97%
20:00 +14°C° 0 mm 0 mps 592 mmHg 97%
21:00 +13°C° 0 mm 0 mps 593 mmHg 96%
22:00 +13°C° 0 mm 0 mps 593 mmHg 96%
23:00 +13°C° 0.1 mm 0 mps 593 mmHg 96%

9 March, Tuesday

Time Temperature Precipitation Wind Pressure Humidity
00:00 +13°C° 0.1 mm 0 mps 592 mmHg 96%
01:00 +13°C° 0.1 mm 0 mps 592 mmHg 97%
02:00 +13°C° 0.1 mm 0 mps 592 mmHg 96%
03:00 +13°C° 0.1 mm 0 mps 591 mmHg 96%
04:00 +13°C° 0.1 mm 0 mps 591 mmHg 96%
05:00 +13°C° 0 mm 0 mps 591 mmHg 96%
06:00 +13°C° 0 mm 0 mps 592 mmHg 95%
07:00 +14°C° 0 mm 1 mps 592 mmHg 95%
08:00 +15°C° 0 mm 1 mps 593 mmHg 88%
09:00 +18°C° 0 mm 1 mps 594 mmHg 82%
10:00 +20°C° 0 mm 1 mps 595 mmHg 76%
11:00 +20°C° 0.6 mm 1 mps 595 mmHg 78%
12:00 +20°C° 0.6 mm 1 mps 594 mmHg 80%
13:00 +20°C° 0.6 mm 1 mps 594 mmHg 82%
14:00 +19°C° 1.2 mm 1 mps 593 mmHg 85%
15:00 +17°C° 1.2 mm 0 mps 592 mmHg 89%
16:00 +16°C° 1.2 mm 0 mps 591 mmHg 92%
17:00 +15°C° 0.9 mm 0 mps 591 mmHg 94%
18:00 +15°C° 0.9 mm 0 mps 592 mmHg 95%
19:00 +14°C° 0.9 mm 0 mps 592 mmHg 97%
20:00 +14°C° 0.2 mm 0 mps 592 mmHg 97%
21:00 +14°C° 0.2 mm 0 mps 592 mmHg 97%
22:00 +13°C° 0.2 mm 0 mps 593 mmHg 96%
23:00 +13°C° 0.1 mm 0 mps 592 mmHg 97%

10 March, Wednesday

Time Temperature Precipitation Wind Pressure Humidity
00:00 +13°C° 0.1 mm 0 mps 592 mmHg 97%
01:00 +13°C° 0.1 mm 0 mps 592 mmHg 97%
02:00 +12°C° 0 mm 0 mps 591 mmHg 97%
03:00 +12°C° 0 mm 0 mps 591 mmHg 96%
04:00 +12°C° 0 mm 0 mps 591 mmHg 96%
05:00 +12°C° 0.2 mm 0 mps 591 mmHg 95%
06:00 +13°C° 0.2 mm 0 mps 591 mmHg 95%
07:00 +13°C° 0.2 mm 0 mps 592 mmHg 95%
08:00 +15°C° 0.2 mm 1 mps 593 mmHg 91%
09:00 +16°C° 0.2 mm 1 mps 594 mmHg 88%
10:00 +19°C° 0.2 mm 1 mps 594 mmHg 85%
11:00 +19°C° 0.8 mm 1 mps 594 mmHg 86%
12:00 +19°C° 0.8 mm 1 mps 593 mmHg 86%
13:00 +19°C° 0.8 mm 1 mps 593 mmHg 86%
14:00 +19°C° 1.4 mm 1 mps 592 mmHg 88%
15:00 +16°C° 1.4 mm 0 mps 592 mmHg 91%
16:00 +15°C° 1.4 mm 0 mps 591 mmHg 93%
17:00 +15°C° 0.7 mm 0 mps 591 mmHg 94%
18:00 +14°C° 0.7 mm 0 mps 591 mmHg 96%
19:00 +14°C° 0.7 mm 0 mps 592 mmHg 97%
20:00 +14°C° 1.2 mm 0 mps 592 mmHg 98%
21:00 +13°C° 1.2 mm 0 mps 592 mmHg 98%
22:00 +13°C° 1.2 mm 0 mps 593 mmHg 98%
23:00 +13°C° 2.1 mm 0 mps 593 mmHg 98%
Show more